User: anonymous   Login
Location: Brainerd
(46.3580°N, 94.2010°W)
Time: 21:20:54
(UTC-05:00)
Language:

CZ-4C R/B - Orbit

View from above orbital plane
View from above orbital plane
View from above satellite
View from above satellite

Ground track
Ground track

The orbit data is extracted from the following two-line orbital elements,

1 32290U 07055B   15087.82804712  .00013377  00000-0  45956-3 0  9999
2 32290 097.5452 170.0793 0081401 131.2463 006.4517 15.27050461407635
Epoch (UTC): 28 March 2015 19:52:23
Eccentricity: 0.0081401
inclination: 97.5452°
perigee height: 429 km
apogee height: 540 km
right ascension of ascending node: 170.0793°
argument of perigee: 131.2463°
revolutions per day: 15.27050461
mean anomaly at epoch: 6.4517°
orbit number at epoch: 40763

The dashed part of the orbit path shows where the satellite is in the earth's shadow,  

DLR